{"data":{"norad_id":60019,"epoch":"2026-05-25T02:46:04.842912Z","epoch_age_seconds":58303,"freshness":"FRESH","line1":"1 60019U 24111D   26145.11533383  .00000145  00000+0  17026-4 0  9999","line2":"2 60019  53.1606  80.7022 0001161  87.1053 273.0081 15.30193522110746","mean_motion":15.30193522,"eccentricity":0.0001161,"inclination_deg":53.1606,"raan_deg":80.7022,"arg_perigee_deg":87.1053,"mean_anomaly_deg":273.0081,"bstar":1.7026e-5,"rev_number":11074,"period_min":94.105744096857,"perigee_km":474.438735207,"apogee_km":476.03008804878,"semimajor_km":6853.3714116279,"source":"CELESTRAK","updated_at":"2026-05-25T13:38:19.131478Z"}}